RH
13 16 20 42 55 57 55 68 60 51 46 59 77 98 100 100 100 99 90 97 99 100 100 87 76 50 56 39 54 57 39 23 16 17 21 14 11 8 7 7 8 8 11 10 11 14 13
12 12 13 27 55 49 54 58 63 86 91 100 97 98 78 75 96 94 96 95 100 99 97 87 78 69 65 34 55 57 32 18 14 17 16 12 9 9 9 8 9 12 13 15 14 14 12
10 11 13 17 30 39 49 61 65 80 78 84 100 64 44 61 65 71 95 96 98 99 81 84 76 67 59 35 61 54 24 15 14 15 12 11 9 10 13 13 13 16 16 17 14 12 9
10 11 12 17 23 30 38 69 75 74 94 91 98 70 72 76 84 92 88 95 100 95 69 89 71 59 43 42 64 42 18 14 14 12 11 11 10 11 14 16 17 16 16 13 11 9 8
16 15 14 13 23 41 52 60 55 65 62 71 54 50 47 60 91 92 97 98 95 83 85 95 66 57 47 53 63 32 16 14 14 12 12 11 11 12 14 15 14 13 11 10 9 8 7
11 20 24 15 20 39 56 65 75 78 71 69 74 86 91 99 97 99 96 95 65 87 98 100 78 66 57 61 55 24 16 14 14 13 12 11 10 11 11 11 11 10 9 8 7 7 6
8 12 29 25 17 34 55 61 64 80 85 77 77 82 96 100 100 100 100 92 71 85 100 100 85 68 57 64 46 21 15 14 13 13 13 12 12 11 11 10 9 9 8 7 6 6 7
28 9 12 33 23 23 37 60 66 69 78 92 86 86 94 97 100 100 94 93 93 94 97 98 74 62 63 62 44 22 14 13 13 13 12 11 10 10 9 8 7 7 6 7 7 12 14
33 35 14 12 25 31 22 35 56 67 80 85 91 94 88 91 90 100 100 100 100 99 93 77 63 64 61 53 36 21 14 12 11 11 10 10 9 8 8 7 7 7 9 11 18 29 27
33 40 38 31 12 15 39 25 38 54 65 81 91 97 97 96 90 93 99 100 92 95 80 62 62 56 54 46 38 24 17 12 10 9 8 8 8 8 9 10 12 16 28 32 32 26 21
12 20 40 40 40 24 12 23 32 25 52 62 71 75 86 96 96 97 96 94 90 78 64 62 60 51 52 38 34 31 21 16 14 14 13 14 14 16 21 30 36 35 31 26 20 18 16
9 11 16 27 45 43 40 16 14 31 21 34 54 61 63 74 73 78 86 80 81 71 62 62 57 53 48 38 37 32 27 26 24 23 27 34 39 38 36 31 24 21 20 22 24 27 24
7 9 10 13 17 32 49 42 33 11 17 30 19 40 56 56 64 63 60 61 61 59 63 62 64 63 59 52 52 46 47 47 48 46 44 40 34 26 21 21 24 28 31 30 30 24 12
7 8 10 13 13 15 19 41 52 40 14 13 18 18 20 45 52 53 53 48 44 41 45 47 44 57 58 58 53 51 48 44 40 31 24 20 21 25 25 29 31 32 29 20 14 9 8
12 11 10 12 16 21 25 21 38 54 41 22 9 14 24 14 20 29 23 34 42 42 41 42 39 31 29 28 28 27 26 25 25 26 25 27 32 35 35 32 25 18 13 12 10 9 8
12 14 17 25 19 18 24 33 38 51 55 49 28 9 12 15 21 13 12 14 14 26 36 40 42 41 41 40 37 37 37 36 35 34 32 28 26 22 16 13 14 13 12 11 10 8 6
20 20 24 28 49 48 21 33 53 64 70 56 48 30 7 9 12 16 18 13 11 10 11 12 16 21 20 21 22 22 22 20 18 14 11 11 12 12 11 12 12 13 12 7 7 7 7
42 23 20 21 44 66 46 43 57 66 68 64 56 45 25 9 7 11 11 14 18 20 15 12 11 10 10 10 9 9 9 10 14 13 14 12 10 12 12 11 9 8 9 10 10 9 11
58 38 29 23 44 67 51 54 65 67 63 62 57 53 39 26 13 7 7 10 10 10 12 20 21 19 19 17 15 15 12 11 11 12 13 13 11 8 8 9 10 11 13 15 15 15 14
66 67 67 61 51 62 54 57 62 63 60 59 58 55 51 38 30 19 9 7 7 8 9 9 9 10 11 11 12 13 13 13 13 12 10 8 8 9 11 12 13 14 14 15 15 14 14
56 61 64 65 61 54 52 51 59 63 57 58 58 57 53 48 40 35 30 19 9 8 7 7 8 8 8 8 8 8 8 8 8 9 9 10 10 10 9 9 10 9 8 8 8 8 8
60 56 56 59 59 59 51 46 52 58 63 58 54 56 58 60 53 52 49 32 29 27 13 10 9 7 7 8 8 8 8 8 8 8 8 7 7 7 7 7 6 6 6 7 7 7 8
51 50 47 46 46 47 56 45 49 54 54 51 51 53 53 56 64 64 64 65 58 33 23 28 30 29 27 22 16 13 14 11 7 7 5 5 5 6 6 7 8 7 15 22 30 37 38
55 52 47 44 39 39 39 48 45 50 54 50 47 48 48 52 56 56 57 64 69 72 70 62 49 30 19 20 25 30 38 49 62 73 70 69 64 60 60 66 62 75 80 81 84 95 96
52 50 46 46 42 42 38 39 44 43 45 53 59 55 51 49 45 46 51 55 57 61 63 62 63 64 62 61 60 56 54 48 45 40 44 49 53 53 60 66 61 83 99 97 95 97 100
60 57 53 46 42 39 38 35 35 41 46 47 47 47 46 43 40 38 38 37 38 42 54 63 63 64 64 59 56 53 52 53 56 61 66 71 78 81 84 82 78 88 92 89 94 93 92
53 52 54 54 48 42 38 37 31 32 37 42 47 53 54 54 52 48 46 42 40 36 32 31 32 36 45 53 60 62 62 65 65 66 71 74 79 84 82 73 62 67 71 69 68 69 68
55 50 43 48 50 49 47 43 38 31 33 39 41 43 47 49 54 58 57 54 46 41 39 38 37 36 35 34 33 36 36 43 45 46 50 55 64 70 74 74 63 58 54 53 52 46 49
58 58 44 45 49 52 54 51 48 41 38 37 42 45 46 49 51 48 48 48 52 53 50 50 51 46 41 40 38 36 35 36 40 41 55 60 65 70 70 73 72 77 72 67 62 56 52
Wind_Speed
47 47 49 48 41 35 27 24 26 16 12 11 10 14 11 13 11 23 43 21 9 37 44 49 55 59 61 55 54 52 50 49 47 43 40 38 35 32 31 30 31 31 30 29 27 26 25
44 47 50 51 45 48 42 26 28 30 27 21 14 20 16 10 16 17 22 7 28 40 40 50 51 54 56 52 51 49 48 47 45 43 40 37 35 32 31 31 31 29 28 26 26 26 25
41 45 47 50 47 47 47 39 35 36 33 34 36 27 19 15 15 13 15 17 35 41 44 47 48 51 52 49 50 47 46 45 44 42 40 38 35 32 31 30 29 27 26 26 25 25 26
38 42 44 47 44 44 45 40 36 36 32 32 29 31 23 16 17 10 20 16 41 35 42 43 46 48 48 48 48 44 43 42 41 39 38 36 33 30 29 27 27 26 26 25 25 26 27
40 38 41 44 45 43 42 41 42 40 36 32 29 25 20 16 15 21 22 20 35 36 39 41 44 45 45 46 45 42 40 39 38 37 35 33 31 29 28 27 26 25 24 25 25 26 27
43 42 39 39 42 43 41 40 39 37 37 32 29 27 25 24 22 25 22 29 29 34 35 41 43 43 43 43 41 38 37 36 35 34 32 31 30 29 27 26 24 24 24 25 26 26 27
41 43 43 38 37 39 38 39 38 36 35 31 30 30 31 31 29 28 28 30 31 32 37 41 42 39 39 38 36 33 32 32 31 30 28 27 26 25 24 23 23 23 24 25 26 25 27
39 41 42 42 36 35 35 34 35 35 35 35 30 28 27 28 30 30 30 28 29 30 35 38 38 38 36 34 31 28 28 27 26 25 24 24 22 22 21 21 21 22 23 25 26 27 29
40 39 40 40 39 35 32 32 31 32 31 32 33 30 26 26 29 30 29 30 28 28 32 36 36 35 33 31 28 25 24 24 23 22 22 22 21 21 20 21 22 23 25 27 28 30 32
38 39 39 39 39 37 35 28 27 27 27 27 27 29 31 32 30 28 26 27 26 25 28 32 34 34 32 29 26 24 23 22 21 21 21 21 21 21 22 22 23 24 26 28 28 28 29
34 35 37 38 37 36 35 33 28 22 21 22 22 22 23 25 27 28 26 24 23 24 24 28 32 32 31 30 28 25 24 23 23 22 22 22 22 21 22 23 24 25 26 26 27 29 32
30 32 33 34 36 35 34 33 31 28 20 18 17 17 18 20 21 21 22 21 19 18 18 24 27 29 30 30 28 27 27 25 24 24 23 22 22 22 23 22 22 23 24 26 28 31 34
24 27 30 31 31 32 32 31 29 27 25 20 13 13 14 15 16 18 20 20 17 14 19 21 21 24 26 26 25 25 25 23 22 22 21 21 21 21 21 21 23 24 27 30 32 32 32
21 23 26 29 30 30 28 28 27 25 23 22 19 12 10 11 11 12 12 13 14 18 17 17 17 19 20 21 20 21 22 21 22 21 22 21 21 21 22 24 26 29 30 30 31 28 25
20 23 25 27 28 29 28 26 25 24 20 18 17 16 12 7 9 11 11 10 11 14 16 17 17 17 17 18 19 19 19 19 20 21 22 23 24 25 27 27 27 26 26 26 27 25 23
20 22 25 27 27 26 28 27 24 21 19 15 14 12 12 9 6 6 8 11 11 12 13 14 16 16 18 18 19 19 19 19 21 22 23 24 25 26 26 26 26 25 23 22 23 25 23
21 21 21 23 27 28 26 26 27 21 17 14 9 9 9 9 8 6 4 6 10 13 14 14 16 17 16 16 17 19 20 21 22 22 22 22 23 23 23 22 20 20 21 22 23 23 23
21 22 24 26 27 26 24 26 25 21 20 14 11 5 4 5 5 6 5 2 2 4 9 14 16 17 17 18 19 20 20 20 20 20 19 19 16 16 18 18 18 19 20 22 24 24 26
22 22 23 25 29 28 21 23 23 20 17 17 17 9 4 1 2 2 2 2 2 1 4 6 8 10 12 13 14 14 15 15 14 15 15 17 18 17 17 19 21 22 24 25 27 28 29
23 25 26 25 25 25 21 19 19 18 17 16 16 15 11 5 4 4 3 2 2 2 3 4 5 7 8 10 11 12 14 14 15 17 18 18 19 21 22 23 24 25 27 29 31 32 33
28 27 24 24 22 17 17 16 16 15 15 16 16 16 15 12 9 8 9 9 9 9 9 9 10 10 11 11 12 14 15 16 18 20 21 22 23 25 27 29 28 28 30 34 34 36 39
27 27 28 27 24 18 12 10 9 10 11 9 12 14 16 15 12 13 13 12 13 15 15 16 16 16 18 19 20 21 22 24 25 27 28 29 30 31 30 35 35 33 33 38 39 41 44
24 24 26 28 25 21 14 9 8 4 4 8 9 9 11 12 14 15 14 14 15 16 18 19 21 22 23 24 26 27 28 30 32 34 35 36 38 39 37 41 43 39 38 43 43 45 46
26 26 24 24 24 25 22 16 12 10 11 9 9 9 10 9 9 8 11 14 15 13 16 18 20 22 25 25 25 27 28 30 31 34 36 38 41 44 43 43 45 39 37 40 43 42 42
30 29 28 27 26 26 25 23 22 18 15 14 16 17 14 14 16 16 14 14 15 17 18 17 18 18 19 20 22 23 25 28 30 32 34 35 38 42 43 41 43 36 36 38 40 40 42
36 35 35 32 31 31 30 30 27 25 25 23 20 19 21 19 17 19 20 22 22 22 23 24 25 27 29 28 27 25 25 26 29 29 30 32 36 40 41 44 44 34 36 39 42 42 40
39 39 39 39 39 38 37 35 32 33 32 32 32 29 29 30 30 25 26 27 28 29 29 31 31 33 34 35 37 38 38 39 39 37 35 37 42 45 46 50 51 44 46 48 50 51 51
42 41 43 43 42 42 41 39 39 39 37 37 37 37 34 34 37 38 36 34 33 33 34 36 38 39 40 42 43 44 46 46 47 47 47 47 49 50 52 53 55 56 56 57 59 60 60
47 45 43 44 44 43 43 44 43 43 42 44 43 43 43 42 40 43 42 44 43 41 41 42 42 43 45 45 48 51 52 53 52 52 50 52 53 54 56 56 58 59 62 65 66 66 67
Wind_Direction
28 27 35 32 34 30 27 31 41 53 29 26 39 52 55 112 120 171 167 167 177 174 169 171 168 174 182 189 189 186 185 188 191 194 196 199 199 202 205 206 209 212 218 224 231 238 245
29 29 37 40 36 31 34 43 54 55 57 55 60 62 66 151 106 109 183 163 172 165 162 167 163 169 177 185 186 185 184 187 189 193 195 198 199 201 206 210 213 216 221 227 234 242 251
28 31 32 42 44 41 43 58 66 55 60 77 72 80 82 82 99 113 101 106 153 160 159 160 161 164 172 181 183 184 183 186 188 191 194 196 200 202 206 212 217 221 227 234 240 248 254
31 32 32 35 46 49 51 52 51 55 60 66 74 70 82 102 107 83 122 118 157 153 156 155 158 163 170 177 181 182 183 186 188 191 195 198 200 206 210 215 222 228 234 240 247 252 259
31 34 38 37 41 49 54 53 55 58 65 69 72 67 68 90 81 107 115 128 142 149 153 152 155 161 167 175 179 181 183 185 188 191 195 199 202 208 214 218 223 231 239 246 252 260 265
33 34 38 41 43 46 53 58 60 60 63 69 79 90 97 101 99 111 120 133 143 146 151 151 153 159 165 173 177 180 183 185 187 191 194 200 205 211 217 222 229 236 244 252 257 263 271
34 36 38 44 46 49 50 51 58 63 66 75 79 87 93 96 96 104 118 131 140 143 149 148 149 156 164 171 175 178 183 185 189 192 196 202 208 214 220 228 236 243 249 256 262 270 278
36 37 39 41 47 50 52 53 52 58 57 60 74 75 91 101 106 109 112 118 132 142 145 144 147 153 161 166 171 177 182 185 189 194 198 205 212 220 227 235 241 249 256 262 270 275 280
36 39 40 42 44 47 50 53 55 56 58 57 60 73 77 93 103 103 113 119 131 141 144 144 148 149 156 162 167 175 180 185 191 196 202 208 216 223 232 240 247 255 261 268 274 278 280
37 38 42 41 43 45 48 50 55 56 60 62 64 61 64 75 86 100 108 120 129 135 146 147 150 153 156 161 167 175 183 187 195 201 208 214 222 229 236 244 252 260 268 272 276 278 284
30 36 37 42 43 43 44 48 51 56 63 64 66 73 78 76 73 94 103 112 121 134 148 152 157 157 161 167 172 179 185 193 202 207 215 223 229 236 243 252 259 263 266 272 277 284 288
25 28 34 38 40 42 43 44 47 52 59 67 74 79 85 93 95 99 100 108 117 132 149 155 161 167 170 175 180 187 194 200 208 214 222 230 239 244 250 253 257 262 269 276 281 284 286
21 22 23 28 34 37 39 41 43 47 50 56 68 86 95 98 105 112 120 125 126 133 152 159 166 173 178 183 189 195 202 207 215 221 228 233 238 242 247 253 259 266 271 274 276 278 282
13 17 19 19 21 26 30 33 36 40 46 49 54 76 95 112 112 117 125 131 138 140 147 158 162 174 183 189 195 201 207 211 216 221 226 231 237 244 251 256 260 265 271 274 276 278 277
8 7 11 13 15 13 16 22 25 28 36 44 50 54 66 114 134 139 128 136 150 156 159 162 164 170 178 187 194 199 204 211 219 226 233 240 246 253 258 262 264 267 268 270 273 274 275
0 3 4 4 5 8 6 6 10 14 17 27 41 57 58 68 94 163 172 162 160 168 178 184 187 191 196 202 209 216 222 228 235 241 246 252 255 257 259 261 264 267 265 268 272 275 276
349 353 356 357 358 356 359 0 355 359 4 7 20 37 55 64 72 85 112 173 186 191 192 195 198 204 211 217 224 229 233 237 242 248 252 255 258 259 260 258 258 262 266 269 271 274 277
335 339 341 347 349 353 352 354 353 353 357 355 355 9 38 44 68 73 78 125 166 176 199 210 215 216 219 224 229 232 236 241 243 249 252 253 249 251 260 264 264 267 269 271 271 274 278
324 329 336 340 343 348 356 355 353 352 0 3 353 348 333 355 80 57 62 78 84 178 220 217 221 224 227 233 236 240 244 244 243 243 245 248 256 259 263 266 269 271 274 275 276 278 280
318 322 325 330 335 344 352 358 358 5 8 16 13 359 352 318 282 270 241 248 270 269 256 238 234 238 239 238 238 241 244 245 249 251 253 255 260 265 269 271 273 276 279 280 281 285 283
308 313 317 320 324 340 348 358 359 6 20 17 21 15 3 352 332 310 281 261 247 244 249 260 264 262 259 258 260 260 261 262 264 266 266 267 267 270 272 272 273 275 278 280 282 283 283
306 310 315 316 318 318 330 345 358 359 3 19 19 12 8 360 340 338 330 295 275 267 260 258 256 257 264 270 271 272 271 270 271 271 271 272 273 272 274 278 277 277 281 280 283 282 284
293 300 307 313 314 312 305 307 305 302 328 348 352 -0 356 4 4 348 344 336 318 297 286 280 271 266 266 265 265 268 271 274 276 276 277 279 279 279 279 279 280 283 279 282 281 281 281
281 287 292 297 304 309 307 292 282 272 268 273 290 306 325 328 331 341 339 337 331 330 325 310 297 285 280 278 278 279 280 280 281 280 282 283 283 282 282 280 279 279 277 274 276 278 279
276 281 286 291 296 299 301 294 283 280 278 275 276 278 280 292 297 302 301 300 302 304 307 308 308 307 300 293 289 289 290 289 288 289 289 287 284 283 283 281 281 285 285 282 278 276 278
281 284 286 286 288 291 293 293 288 282 276 277 274 277 282 279 282 288 297 299 297 293 291 287 288 292 293 291 285 281 280 281 285 288 291 291 290 289 291 288 289 291 284 280 279 280 277
278 281 282 284 283 285 290 289 288 289 289 284 278 277 279 282 282 281 286 291 292 292 291 289 289 288 287 286 286 288 287 287 285 282 280 278 278 282 286 287 288 292 289 286 284 283 283
268 273 279 280 281 281 279 280 281 282 283 285 286 285 285 285 282 284 285 288 288 286 286 287 288 290 288 288 290 287 285 284 285 287 287 287 286 286 284 285 287 286 287 286 285 283 283
270 268 270 273 274 273 273 277 277 275 277 280 281 283 285 287 287 286 289 292 292 290 290 291 292 288 283 283 284 284 285 286 285 283 283 283 282 282 284 286 287 288 288 284 282 282 283